{"data":{"norad_id":66787,"epoch":"2026-09-20T03:24:19.342656Z","epoch_age_seconds":45587,"freshness":"FRESH","line1":"1 66787U 25276EB  26263.14189054  .00004411  00000+0  34849-3 0  9997","line2":"2 66787  97.5324 331.0027 0016435 185.0887 175.0173 15.01068450 44459","mean_motion":15.0106845,"eccentricity":0.0016435,"inclination_deg":97.5324,"raan_deg":331.0027,"arg_perigee_deg":185.0887,"mean_anomaly_deg":175.0173,"bstar":0.00034849,"rev_number":4445,"period_min":95.931667872974,"perigee_km":552.19159188336,"apogee_km":575.00908251073,"semimajor_km":6941.737337197,"source":"CELESTRAK","updated_at":"2026-09-20T09:00:34.881020Z"}}